Flag for U.S.A. Weather past 2 weeks in Lawrence, Kansas, U.S.A.

Now
50 °F

Clear.


Feels Like: 47 °F
Forecast: 55 / 74 °F
Wind: 8 mph from Northwest

Location: Lawrence Municipal Airport

Current Time: Sep 21, 2014 at 7:39:23 AM

Latest Report: Sep 21, 2014 at 6:52 AM


Visibility: 7 mi

Pressure: 30.12 "Hg

Humidity: 96%

Dew point: 49 °F

Location of LawrenceLocation

Historic Weather in Lawrence — Graph

°F

Lawrence temperature yesterday

Maximum temperature yesterday: 85 °F (at 12:52 PM)
Minimum temperature yesterday: 64 °F (at 11:01 PM)
Average temperature yesterday: 72 °F

Past Weeks' High & Low Weather Summary

 TemperatureHumidityPressure
High92 °F (Sep 9, 2:52 PM)100% (Sep 13, 7:52 AM)30.44 "Hg (Sep 13, 7:52 AM)
Low35 °F (Sep 13, 5:52 AM)40% (Sep 7, 3:52 PM)29.52 "Hg (Sep 9, 11:52 PM)
Average64 °F79%30.06 "Hg
* Reported Sep 6 5:52 AM — Sep 21 5:52 AM, Lawrence, Weather by CustomWeather, © 2014

Note: Actual official high and low records may vary slightly from our data, if they occured in-between our weather recording intervals... More about our weather records

Advertising

Lawrence weather history for previous 24 hours

 ConditionsComfort  
Time TempWeatherWind HumidityBarometerVisibility
5:52 AM
Sep 21
53 °FClear.5 mph96%30.10 "Hg10 mi
4:52 AM57 °FClear.No wind90%30.09 "Hg10 mi
3:52 AM61 °FClear.No wind81%30.06 "Hg10 mi
2:52 AM65 °FClear.8 mph78%30.04 "Hg10 mi
2:01 AM62 °FFog.7 mph100%30.05 "Hg1 mi
1:52 AM62 °FFog.10 mph93%30.02 "Hg0 mi
12:59 AM61 °FFog.5 mph100%30.01 "Hg0 mi
11:52 PM
Sep 20
64 °FFog.3 mph94%29.99 "Hg0 mi
11:01 PM64 °FFog.No wind94%30.00 "Hg1 mi
9:52 PM66 °FFog.7 mph93%29.97 "Hg5 mi
8:52 PM69 °FFog.7 mph90%29.95 "Hg5 mi
7:52 PM71 °FSunny.No wind87%29.92 "Hg7 mi
6:52 PM75 °FSunny.3 mph82%29.91 "Hg8 mi
5:52 PM78 °FSunny.5 mph74%29.89 "Hg8 mi
4:52 PM79 °FPartly sunny.6 mph72%29.90 "Hg8 mi
3:52 PM82 °FPassing clouds.8 mph63%29.90 "Hg8 mi
2:52 PM82 °FSunny.9 mph63%29.89 "Hg8 mi
1:52 PM84 °FSunny.13 mph59%29.94 "Hg9 mi
12:52 PM85 °FSunny.15 mph59%29.94 "Hg8 mi
7:52 AM68 °FFog.No wind90%29.97 "Hg2 mi
Weather by CustomWeather, © 2014

See weather overviewHow to use our weather pages